OH7GGX-14 Weather Reports


time (UTC)temp
C
wind
direction
speed
KPH
gust
KPH
rain 1hr
cm
rain 24hr
cm
rain mn
cm
humidity
%
barometer
mb
20260508161125 11 80 11.3 19.3 0.00 0.00 0.00 47 1026.5
20260508160125 11 352 4.8 8.0 0.00 0.00 0.00 41 1026.5
20260508155125 11 281 3.2 8.0 0.00 0.00 0.00 41 1026.5
20260508154125 11 180 0.0 6.4 0.00 0.00 0.00 41 1026.3
20260508153125 11 15 4.8 8.0 0.00 0.00 0.00 39 1026.3
20260508152125 11 343 4.8 6.4 0.00 0.00 0.00 40 1026.2
20260508151125 11 351 8.0 16.1 0.00 0.00 0.00 41 1026.2
20260508150125 11 351 8.0 8.0 0.00 0.00 0.00 40 1026.1
20260508145125 11 237 1.6 8.0 0.00 0.00 0.00 40 1026.1
20260508144125 11 350 4.8 11.3 0.00 0.00 0.00 41 1026.1
20260508143125 11 302 6.4 16.1 0.00 0.00 0.00 42 1026.0
20260508142125 11 36 12.9 19.3 0.00 0.00 0.00 43 1026.0
20260508141125 10 8 9.7 17.7 0.00 0.00 0.00 42 1026.0
20260508140125 10 22 12.9 19.3 0.00 0.00 0.00 43 1025.9
20260508135125 11 12 14.5 14.5 0.00 0.00 0.00 41 1026.0
20260508134125 11 36 8.0 12.9 0.00 0.00 0.00 41 1025.8
20260508133125 11 14 3.2 17.7 0.00 0.00 0.00 40 1025.7
20260508132125 11 268 3.2 12.9 0.00 0.00 0.00 43 1025.5
20260508131125 10 14 6.4 17.7 0.00 0.00 0.00 44 1025.5
20260508130125 10 345 4.8 9.7 0.00 0.00 0.00 44 1025.4
20260508125125 10 323 11.3 11.3 0.00 0.00 0.00 44 1025.6
20260508124125 10 341 6.4 12.9 0.00 0.00 0.00 44 1025.5
20260508123125 10 36 9.7 11.3 0.00 0.00 0.00 43 1025.5
20260508122125 10 2 8.0 16.1 0.00 0.00 0.00 42 1025.4
20260508121125 10 5 6.4 14.5 0.00 0.00 0.00 45 1025.4
20260508120125 10 91 1.6 12.9 0.00 0.00 0.00 46 1025.2
20260508115125 9 9 4.8 14.5 0.00 0.00 0.00 49 1025.4
20260508114125 10 351 4.8 12.9 0.00 0.00 0.00 45 1025.1
20260508113125 10 350 11.3 11.3 0.00 0.00 0.00 47 1025.2
20260508112125 10 0 1.6 8.0 0.00 0.00 0.00 51 1025.1
20260508111125 9 324 3.2 14.5 0.00 0.00 0.00 49 1025.2
20260508110125 9 12 8.0 11.3 0.00 0.00 0.00 49 1025.0
20260508105125 8 9 3.2 6.4 0.00 0.00 0.00 57 1025.0
20260508104125 8 300 9.7 16.1 0.00 0.00 0.00 60 1025.0
20260508103125 8 2 4.8 14.5 0.00 0.00 0.00 65 1025.0
20260508102125 8 42 8.0 8.0 0.00 0.00 0.00 66 1025.0
20260508101125 7 11 3.2 12.9 0.00 0.00 0.00 68 1024.8
20260508100125 7 21 14.5 16.1 0.00 0.00 0.00 69 1024.8
20260508095126 7 338 3.2 6.4 0.00 0.00 0.00 75 1024.8
20260508094126 6 261 4.8 11.3 0.00 0.00 0.00 80 1024.6
20260508093125 6 9 11.3 11.3 0.00 0.00 0.00 81 1024.7
20260508092126 6 348 8.0 9.7 0.00 0.00 0.00 82 1024.4
20260508091126 6 324 6.4 16.1 0.00 0.00 0.00 85 1024.3
20260508090126 6 338 6.4 6.4 0.00 0.00 0.00 88 1024.4
20260508085126 6 344 9.7 12.9 0.00 0.00 0.00 82 1024.2
20260508084126 6 337 6.4 11.3 0.00 0.00 0.00 81 1023.9
20260508083126 6 19 3.2 9.7 0.00 0.00 0.00 84 1024.0
20260508082126 6 300 6.4 14.5 0.00 0.00 0.00 83 1024.0
20260508081126 6 355 1.6 14.5 0.00 0.00 0.00 84 1023.8
20260508080128 6 202 1.6 6.4 0.00 0.00 0.00 84 1023.5
20260508075126 6 330 3.2 9.7 0.00 0.00 0.00 85 1023.3
20260508074126 6 336 4.8 16.1 0.00 0.00 0.00 87 1023.2
20260508073126 5 0 0.0 11.3 0.00 0.00 0.00 87 1023.1
20260508072126 5 300 4.8 9.7 0.00 0.00 0.00 86 1023.0
20260508071126 6 312 4.8 9.7 0.00 0.00 0.00 82 1022.7
20260508070126 5 291 1.6 6.4 0.00 0.00 0.00 82 1022.6
20260508065126 6 178 1.6 9.7 0.00 0.00 0.00 82 1022.4
20260508064126 6 300 17.7 17.7 0.00 0.00 0.00 81 1022.1
20260508063126 6 333 3.2 9.7 0.00 0.00 0.00 81 1022.1
20260508062126 6 337 4.8 6.4 0.00 0.00 0.00 82 1021.9
20260508061126 6 29 4.8 6.4 0.00 0.00 0.00 81 1021.8
20260508060126 6 288 3.2 6.4 0.00 0.00 0.00 83 1021.7
20260508055126 6 254 4.8 8.0 0.00 0.00 0.00 82 1021.4
20260508054126 6 267 4.8 11.3 0.00 0.00 0.00 80 1021.3
20260508053126 6 267 6.4 6.4 0.00 0.00 0.00 82 1021.2
20260508052126 6 268 0.0 8.0 0.00 0.00 0.00 83 1021.0
20260508051126 6 267 1.6 11.3 0.00 0.00 0.00 82 1020.9
20260508050126 6 278 6.4 6.4 0.00 0.00 0.00 84 1020.7
20260508045126 5 350 3.2 8.0 0.00 0.00 0.00 86 1020.6
20260508044126 5 306 4.8 8.0 0.00 0.00 0.00 87 1020.6
20260508043126 5 286 4.8 4.8 0.00 0.00 0.00 89 1020.5
20260508042126 5 299 1.6 4.8 0.00 0.00 0.00 92 1020.4
20260508041126 4 310 3.2 9.7 0.00 0.00 0.00 92 1020.3
20260508040126 4 300 3.2 6.4 0.00 0.00 0.00 91 1020.2
20260508035126 4 298 6.4 6.4 0.00 0.00 0.00 92 1020.2
20260508034126 3 232 1.6 8.0 0.00 0.00 0.00 91 1020.1
20260508033126 3 313 3.2 6.4 0.00 0.00 0.00 92 1020.0
20260508032126 3 281 1.6 4.8 0.00 0.00 0.00 91 1019.9
20260508031126 2 291 0.0 4.8 0.00 0.00 0.00 91 1019.8
20260508030126 2 19 1.6 3.2 0.00 0.00 0.00 90 1019.7
20260508025126 2 291 1.6 4.8 0.00 0.00 0.00 89 1019.5
20260508024126 2 237 1.6 4.8 0.00 0.00 0.00 87 1019.4
20260508023126 2 281 3.2 3.2 0.00 0.00 0.00 85 1019.2
20260508022126 2 307 0.0 0.0 0.00 0.00 0.00 81 1019.1
20260508021126 2 267 0.0 1.6 0.00 0.00 0.00 79 1019.1
20260508020126 3 338 0.0 0.0 0.00 0.00 0.00 78 1018.8
20260508015126 3 336 0.0 0.0 0.00 0.00 0.00 78 1018.8
20260508014126 3 341 0.0 1.6 0.00 0.00 0.00 78 1018.8
20260508013126 3 330 0.0 1.6 0.00 0.00 0.00 77 1018.8
20260508012126 3 22 1.6 4.8 0.00 0.00 0.00 77 1018.7
20260508011127 4 196 0.0 3.2 0.00 0.00 0.00 76 1018.7
20260508010126 4 343 1.6 3.2 0.00 0.00 0.00 75 1018.6
20260508005126 3 168 0.0 3.2 0.00 0.00 0.00 76 1018.6
20260508004126 3 133 1.6 6.4 0.00 0.00 0.00 77 1018.6
20260508003126 2 348 3.2 8.0 0.00 0.00 0.00 81 1018.6
20260508002127 1 217 4.8 14.5 0.00 0.00 0.00 85 1018.6
20260508001126 0 178 0.0 9.7 0.00 0.00 0.00 88 1018.5
20260508000127 0 178 1.6 1.6 0.00 0.00 0.00 88 1018.6
20260507235127 0 223 3.2 3.2 0.00 0.00 0.00 88 1018.4
20260507234127 0 21 0.0 1.6 0.00 0.00 0.00 87 1018.2
20260507233127 0 199 0.0 0.0 0.00 0.00 0.00 87 1018.1
20260507232127 0 199 0.0 0.0 0.00 0.00 0.00 86 1018.1
20260507231127 0 312 0.0 1.6 0.00 0.00 0.00 85 1018.1
20260507230127 0 133 0.0 0.0 0.00 0.00 0.00 85 1017.9
20260507225127 0 199 0.0 0.0 0.00 0.00 0.00 84 1018.0
20260507224127 0 334 0.0 0.0 0.00 0.00 0.00 83 1018.0
20260507223127 0 178 0.0 0.0 0.00 0.00 0.00 82 1017.8
20260507222127 0 21 0.0 0.0 0.00 0.00 0.00 80 1017.8
20260507221127 0 336 0.0 0.0 0.00 0.00 0.00 79 1017.9
20260507220127 0 223 0.0 0.0 0.00 0.00 0.00 79 1017.9
20260507215127 0 223 0.0 0.0 0.00 0.00 0.00 76 1017.8
20260507214127 0 334 0.0 0.0 0.00 0.00 0.00 75 1017.8
20260507213127 0 334 0.0 0.0 0.00 0.00 0.00 73 1017.8
20260507212127 0 223 0.0 0.0 0.00 0.00 0.00 73 1017.7
20260507211127 0 260 0.0 1.6 0.00 0.00 0.00 72 1017.7
20260507210127 0 178 1.6 1.6 0.00 0.00 0.00 71 1017.6
20260507205127 1 223 0.0 1.6 0.00 0.00 0.00 69 1017.6
20260507204127 1 267 0.0 0.0 0.00 0.00 0.00 68 1017.5
20260507203127 1 267 0.0 0.0 0.00 0.00 0.00 67 1017.5
20260507202127 1 267 0.0 0.0 0.00 0.00 0.00 66 1017.3
20260507201127 2 267 0.0 0.0 0.00 0.00 0.00 63 1017.3
20260507200127 2 223 0.0 0.0 0.00 0.00 0.00 63 1017.3
20260507195127 3 223 0.0 0.0 0.00 0.00 0.00 60 1017.1
20260507194127 3 223 0.0 0.0 0.00 0.00 0.00 58 1017.2
20260507193127 4 223 0.0 0.0 0.00 0.00 0.00 56 1017.1
20260507192127 5 223 0.0 0.0 0.00 0.00 0.00 55 1017.2
20260507191127 5 223 0.0 0.0 0.00 0.00 0.00 52 1017.2
20260507190127 6 334 0.0 0.0 0.00 0.00 0.00 50 1017.0
20260507185127 7 223 0.0 0.0 0.00 0.00 0.00 48 1017.0
20260507184127 7 223 0.0 0.0 0.00 0.00 0.00 46 1017.0
20260507183127 8 309 0.0 0.0 0.00 0.00 0.00 45 1016.9
20260507182127 8 312 0.0 0.0 0.00 0.00 0.00 43 1016.9
20260507181127 9 312 0.0 0.0 0.00 0.00 0.00 41 1016.9
20260507180127 10 344 0.0 0.0 0.00 0.00 0.00 39 1017.0
20260507175127 10 223 0.0 0.0 0.00 0.00 0.00 38 1016.9
20260507174127 11 347 0.0 1.6 0.00 0.00 0.00 36 1016.8
20260507173127 11 291 0.0 1.6 0.00 0.00 0.00 35 1016.8
20260507172127 11 303 1.6 3.2 0.00 0.00 0.00 34 1016.8
20260507171127 11 250 0.0 0.0 0.00 0.00 0.00 35 1016.7
20260507170127 11 302 0.0 1.6 0.00 0.00 0.00 34 1016.7
20260507165127 11 11 0.0 3.2 0.00 0.00 0.00 33 1016.7
20260507164127 11 21 0.0 3.2 0.00 0.00 0.00 33 1016.7
20260507163127 11 223 0.0 1.6 0.00 0.00 0.00 32 1016.6
20260507162127 11 267 1.6 1.6 0.00 0.00 0.00 32 1016.6